Dewpoint
63 65 65 68 69 69 69 69 69 69 69 68 68 67 68 68 70 70 70 70 69 68 69 68 68 69 68 69 69 68 67 65 63 66 67 70 69 70 69 69 69 67 66
63 65 65 65 69 69 69 70 70 69 69 67 67 66 64 69 70 70 69 70 69 68 68 68 68 69 68 68 68 68 67 66 65 64 65 70 69 70 69 68 68 66 65
66 66 67 67 67 68 69 70 70 69 68 68 67 65 65 69 70 70 70 70 70 69 67 64 66 68 68 68 68 67 68 69 66 66 65 69 70 69 67 66 65 64 64
67 66 67 67 68 68 68 70 70 70 69 68 68 69 69 69 70 70 70 70 69 68 66 68 69 69 68 67 68 67 68 67 66 66 66 66 69 68 67 64 63 63 62
67 68 67 68 69 70 70 70 71 70 69 69 69 69 69 70 70 70 70 70 69 69 70 70 69 69 68 68 69 68 67 66 65 65 64 64 65 67 65 65 63 60 60
67 68 69 69 70 70 71 70 69 69 69 69 69 69 69 71 68 67 70 70 69 69 69 68 67 67 65 65 65 65 67 66 65 64 64 63 63 64 65 65 61 58 58
66 67 68 69 69 69 69 69 69 68 67 68 69 69 69 70 65 65 67 69 69 69 69 67 67 66 63 62 62 62 61 62 65 65 64 63 63 65 65 66 63 61 60
67 67 67 67 67 68 69 69 67 68 67 66 67 69 69 68 63 63 66 69 69 69 69 69 69 64 63 61 59 58 58 58 59 61 61 60 61 62 66 67 65 60 58
65 65 65 66 67 66 68 68 67 65 65 66 67 68 67 65 61 62 64 68 67 66 67 68 68 67 62 60 58 57 57 57 59 60 60 61 62 63 66 64 61 59 58
64 63 66 66 65 66 67 68 68 66 66 68 67 67 65 65 60 60 61 67 65 64 63 64 64 65 59 58 59 57 56 56 57 58 59 60 61 63 64 66 63 61 58
60 63 63 66 67 67 66 67 69 68 67 67 66 66 65 64 62 60 59 67 65 64 63 62 60 58 56 56 57 58 57 56 58 58 58 58 60 61 61 63 65 63 60
61 62 63 64 64 63 65 65 67 68 68 67 65 63 62 62 59 57 58 61 63 63 62 62 57 54 54 54 58 56 56 58 57 56 57 57 58 57 58 59 59 59 59
58 58 58 60 61 62 62 62 62 62 62 60 60 60 60 60 61 57 56 58 59 60 60 56 52 51 52 54 55 56 57 57 55 55 55 54 54 55 55 55 56 57 57
57 57 56 55 55 55 59 60 61 60 59 59 58 57 57 57 57 58 58 58 57 57 57 58 56 56 55 56 56 57 57 55 54 53 52 52 52 53 52 52 52 53 55
56 56 57 56 55 53 50 49 56 54 58 59 59 58 58 57 56 54 56 58 58 56 57 57 57 56 56 56 55 55 54 53 52 51 51 51 51 52 51 50 49 50 51
55 55 56 56 57 57 57 55 48 47 46 47 48 54 53 50 47 47 46 48 49 52 57 56 55 55 55 54 53 51 49 50 49 51 48 47 49 50 49 49 49 49 49
56 56 56 56 56 56 55 56 55 53 47 44 44 45 46 45 45 45 45 46 48 53 56 55 54 51 49 48 48 48 49 49 52 47 46 46 47 49 48 48 47 47 46
59 54 57 57 54 53 54 53 53 54 54 53 46 45 43 44 44 44 45 51 55 54 54 52 50 49 49 49 51 51 51 52 52 49 47 45 46 47 47 47 46 45 45
59 57 56 56 54 53 53 53 51 52 51 50 49 46 44 42 43 44 47 55 54 52 52 54 52 52 52 53 52 49 50 49 47 44 43 45 45 45 45 45 44 44 44
60 58 57 56 55 53 53 52 51 50 49 49 49 49 49 49 53 53 52 52 54 53 51 53 54 53 53 52 49 48 46 47 46 45 45 46 47 46 43 42 44 44 43
60 59 59 58 58 55 53 53 52 51 50 50 49 49 47 51 51 51 50 51 52 53 50 47 48 50 50 49 48 47 46 47 47 47 47 46 45 46 43 40 39 41 42
59 58 59 59 59 59 56 54 53 52 51 51 51 51 46 51 51 52 53 53 54 55 50 46 47 48 48 48 47 47 47 47 48 47 45 44 43 43 43 40 40 42 41
59 56 56 56 57 56 56 55 54 53 52 51 51 50 49 50 51 52 53 52 54 52 48 47 47 47 47 48 47 47 47 47 48 46 45 44 43 43 41 40 41 41 41
59 57 52 53 52 54 54 56 55 51 52 51 52 51 49 49 50 51 51 51 51 48 48 47 47 46 47 47 48 48 47 47 48 46 46 45 44 42 41 40 41 41 40
60 56 51 49 48 48 48 51 54 54 53 53 52 52 51 49 49 50 51 51 51 49 48 47 47 46 46 46 47 47 45 39 46 43 46 45 43 43 43 41 41 42 41
60 59 57 53 49 47 45 47 51 52 52 52 52 52 52 50 49 50 51 51 51 50 49 49 48 47 46 46 46 43 37 34 42 39 46 45 44 44 42 41 41 42 40
Lifted_Index
-1 -1 -1 -1 -2 -2 -3 -3 -3 -3 -3 -3 -2 -2 -3 -3 -3 -4 -4 -4 -3 -3 -3 -3 -3 -3 -3 -3 -3 -3 -2 -2 -2 -2 -2 -2 -2 -2 -1 -1 -1 -0 -0
-0 -1 -1 -1 -2 -2 -3 -3 -3 -3 -3 -3 -2 -2 -2 -3 -3 -4 -4 -4 -3 -3 -3 -3 -3 -3 -3 -3 -3 -3 -2 -2 -2 -2 -2 -2 -2 -2 -1 -1 -0 -0 -0
-0 -0 -1 -1 -2 -2 -3 -3 -3 -3 -3 -3 -2 -2 -2 -2 -3 -4 -4 -4 -4 -3 -3 -2 -2 -3 -3 -3 -3 -3 -3 -2 -2 -2 -2 -2 -2 -2 -1 -0 -0 0 0
-1 -1 -1 -1 -2 -2 -3 -3 -3 -4 -3 -3 -3 -3 -2 -2 -3 -4 -4 -4 -4 -4 -3 -3 -3 -3 -3 -3 -3 -3 -3 -3 -2 -2 -2 -2 -2 -2 -1 -0 0 0 1
-1 -1 -1 -2 -2 -3 -3 -3 -3 -4 -4 -3 -3 -3 -3 -3 -3 -4 -4 -4 -4 -4 -4 -3 -3 -3 -3 -3 -3 -2 -2 -2 -2 -2 -2 -2 -2 -2 -1 -0 0 0 0
-2 -2 -2 -2 -3 -3 -3 -3 -3 -3 -3 -3 -3 -3 -3 -3 -3 -4 -4 -4 -4 -4 -4 -3 -3 -3 -3 -2 -2 -2 -2 -2 -2 -2 -2 -2 -2 -1 -1 -0 -0 -0 -0
-3 -3 -3 -3 -3 -3 -3 -3 -3 -3 -2 -2 -3 -3 -3 -3 -4 -4 -4 -4 -4 -4 -4 -3 -3 -3 -2 -2 -2 -2 -2 -2 -1 -1 -1 -1 -1 -1 -1 -1 -0 -0 -0
-3 -3 -3 -3 -3 -3 -3 -3 -3 -2 -1 -1 -2 -2 -3 -3 -3 -3 -3 -4 -4 -4 -4 -3 -3 -3 -2 -2 -2 -1 -1 -1 -1 -1 -1 -1 -1 -0 -0 -0 -0 -0 -0
-2 -2 -2 -2 -3 -3 -3 -3 -3 -2 -1 -0 -1 -2 -3 -3 -3 -3 -3 -3 -4 -3 -3 -3 -3 -3 -2 -2 -2 -1 -1 -1 -0 -0 -0 0 0 0 -0 -0 -0 -0 -0
-1 -1 -1 -1 -2 -2 -3 -3 -3 -3 -2 -1 -1 -1 -2 -2 -2 -3 -3 -3 -3 -3 -3 -3 -3 -3 -3 -2 -2 -1 -1 -0 0 0 0 1 1 1 1 1 1 0 0
1 0 -0 -0 -1 -1 -2 -3 -3 -3 -2 -2 -1 -1 -1 -2 -2 -2 -2 -2 -3 -2 -2 -2 -3 -3 -2 -2 -1 -1 -0 0 0 1 1 1 1 1 1 1 1 1 1
2 1 1 0 -0 -1 -1 -2 -2 -2 -2 -2 -2 -2 -2 -2 -1 -1 -1 -2 -2 -2 -2 -2 -2 -2 -2 -1 -1 -0 0 1 1 1 2 2 2 3 3 3 2 1 1
2 2 1 0 -0 -0 -1 -1 -1 -2 -2 -2 -2 -2 -2 -2 -1 -1 -1 -1 -1 -1 -1 -1 -1 -1 -1 -0 0 0 1 1 2 2 2 3 4 5 5 5 4 3 3
2 2 1 1 0 0 0 -0 -0 -1 -1 -2 -1 -1 -1 -1 -1 -1 -0 -0 -1 -1 -1 -1 -0 0 0 1 1 1 2 2 3 3 4 5 6 7 7 6 6 5 5
2 2 2 1 1 1 0 0 0 0 -0 -0 -0 -0 -0 -0 -0 0 0 0 -0 -0 -0 0 1 1 1 2 2 2 3 3 4 4 5 6 7 8 8 7 6 6 6
2 2 2 2 2 2 1 1 1 1 1 1 1 0 0 0 1 1 1 1 1 1 1 1 2 2 2 2 3 3 4 4 5 6 6 7 8 8 9 8 7 7 7
2 2 2 3 3 3 3 3 2 2 2 2 2 2 1 1 2 2 2 2 2 2 2 3 3 3 3 3 4 4 5 6 7 8 8 9 9 9 9 9 8 8 8
1 1 2 2 3 3 3 3 3 3 3 3 3 3 3 3 3 3 3 3 4 4 4 4 4 4 4 5 5 5 6 7 9 10 10 10 10 9 9 9 9 9 9
1 1 1 2 2 2 2 2 2 3 3 4 4 4 4 3 4 4 5 5 5 5 5 6 6 6 6 6 6 7 8 9 9 10 10 10 9 9 9 9 9 9 9
0 1 1 1 2 2 2 2 2 3 4 5 5 4 4 4 4 5 5 5 5 5 6 6 6 6 7 7 7 8 9 9 9 9 9 9 9 8 8 8 9 9 9
-0 0 1 1 2 2 2 3 4 5 6 6 6 5 4 4 5 5 5 5 5 5 6 6 7 7 7 8 8 9 9 9 9 8 8 8 8 8 8 8 9 9 9
-0 0 1 1 1 2 2 3 4 5 6 7 7 6 5 5 5 5 5 5 5 6 6 6 7 7 8 8 9 9 9 9 8 8 8 8 8 8 8 8 9 9 9
-1 -0 0 1 1 1 1 2 3 4 6 7 7 6 6 5 5 5 5 5 5 6 6 6 7 8 9 9 9 9 9 8 8 8 8 8 8 8 8 8 9 9 10
-1 -1 -0 1 1 2 2 2 2 3 4 5 6 6 6 5 5 4 4 4 5 5 6 7 7 8 8 8 8 8 8 8 7 7 7 8 8 8 8 8 9 9 10
-2 -1 -1 0 1 2 3 3 3 3 3 4 5 5 5 5 4 4 4 4 4 5 5 6 6 7 7 8 8 7 7 7 7 7 7 7 7 8 8 8 8 9 9
-2 -2 -1 -0 1 2 4 4 4 4 3 3 4 4 5 4 4 3 4 4 4 5 5 5 5 6 6 7 7 7 7 7 7 7 7 7 7 7 7 8 8 8 8